Temp
4 4 4 4 4 4 6 6 8 11 11 10 9 11 15 15 16 15 14 14 14 15 16 16 15 15 16 14 13 13 13 13 11 14 15 15 15 14 14 12 14 12 12 11
4 4 4 4 4 4 3 6 6 11 11 9 8 10 13 15 15 14 14 14 13 15 15 14 13 16 14 14 13 13 13 12 11 14 14 15 14 14 14 14 12 12 12 12
4 4 3 3 4 4 5 6 6 8 7 8 10 9 11 12 13 14 14 14 15 14 14 14 14 16 14 13 13 13 13 12 12 14 16 15 14 14 14 13 9 12 12 14
4 4 3 3 3 5 5 5 6 6 6 8 7 8 10 11 12 13 14 13 13 13 13 13 13 13 14 13 13 12 11 10 11 12 13 13 13 13 13 11 12 13 15 14
4 3 3 3 3 5 5 4 5 4 5 6 7 8 9 10 11 10 10 11 9 10 12 14 14 14 13 13 10 10 10 10 13 12 13 12 12 13 13 12 13 12 13 13
3 3 3 3 3 3 3 3 4 3 4 5 5 6 7 7 7 9 10 9 8 10 11 11 11 10 12 12 10 10 10 9 10 12 14 13 13 14 14 12 12 14 12 14
3 3 3 3 3 3 3 3 3 2 2 3 4 5 5 6 6 6 7 7 7 10 11 11 12 11 10 10 10 10 10 10 10 9 12 11 15 14 14 14 14 13 14 14
3 3 3 3 3 3 3 3 2 3 2 4 4 4 5 4 5 5 5 6 8 8 9 10 10 10 10 10 10 10 10 11 11 10 9 12 15 13 13 13 16 14 13 13
3 3 3 3 3 3 3 3 3 2 2 3 4 3 3 2 3 4 5 7 6 6 8 9 9 9 10 10 9 7 9 10 12 8 10 12 15 14 13 15 15 14 13 12
3 3 3 3 3 3 3 3 2 2 2 3 3 2 2 3 3 3 4 5 5 6 7 8 9 9 11 11 10 7 7 7 9 10 10 10 13 13 14 16 16 13 13 12
3 3 3 3 3 3 3 2 2 2 2 2 3 3 2 3 3 3 4 4 5 5 6 8 9 9 10 10 12 7 10 8 8 9 9 9 12 12 14 15 12 12 11 10
2 2 3 3 3 2 2 2 2 2 1 2 2 3 3 2 2 2 3 3 3 4 3 4 4 4 5 7 8 11 10 12 9 10 11 12 12 13 12 11 12 11 11 10
2 2 2 3 2 2 2 2 2 1 1 1 2 2 3 3 2 3 2 3 5 5 5 3 5 4 5 5 7 8 8 11 12 11 12 12 10 11 12 11 12 10 10 9
2 2 2 2 2 2 2 2 2 1 1 1 2 4 4 4 4 4 4 4 5 5 4 4 4 3 5 5 7 6 6 6 8 10 10 11 11 9 11 11 10 9 8 9
2 2 2 1 2 2 2 1 1 1 1 1 1 4 4 4 4 5 5 4 3 3 3 3 4 5 4 4 5 5 7 8 8 7 10 12 13 11 9 8 8 8 8 7
1 1 1 1 1 1 1 1 3 3 1 1 1 3 2 3 3 3 3 4 4 4 3 3 4 6 5 4 4 6 7 8 9 9 10 9 9 9 8 8 7 7 7 7
2 2 2 2 2 1 1 1 3 3 2 1 1 1 2 5 4 4 3 3 3 3 4 4 4 4 5 4 4 7 7 7 6 8 7 6 8 9 7 7 6 7 6 6
2 2 1 1 2 1 1 2 1 1 1 1 0 0 1 5 3 2 3 3 3 3 3 4 4 5 5 4 5 6 7 7 8 8 8 8 8 7 7 6 5 5 4 4
1 1 1 1 1 1 1 2 2 2 1 1 1 1 1 4 4 4 3 4 3 3 4 4 5 4 4 5 6 7 7 7 7 8 9 8 8 7 5 5 5 4 3 3
1 1 0 -2 2 2 1 2 -1 -2 -0 0 0 2 2 4 3 2 3 3 3 4 3 3 3 4 6 7 7 7 8 7 8 7 8 6 5 4 4 5 5 3 2 2
1 -1 -2 2 2 0 -1 -1 -1 -1 1 -0 0 1 1 2 1 2 2 4 4 4 2 4 2 5 6 6 6 7 7 8 8 8 9 9 8 5 5 4 3 2 2 1
0 -0 0 -0 -1 -1 -0 -1 -0 1 1 1 1 0 1 1 2 3 3 3 2 3 1 3 2 7 7 6 6 6 7 7 7 9 9 9 6 5 4 2 2 2 1 1
0 -1 -2 -2 -4 -2 -1 0 -1 -0 0 -0 -1 -1 0 1 2 3 4 4 4 1 4 3 3 4 4 5 6 6 7 8 7 7 8 6 5 4 3 2 1 1 1 0
-6 -4 -2 -3 -6 -0 -0 -1 -1 -1 -1 -2 -2 -1 0 0 3 4 4 1 1 2 2 1 -2 1 2 2 3 5 5 6 6 6 4 2 2 1 1 1 0 -0 -1 -1
-3 -2 -3 -7 -2 -3 -2 -2 -2 -2 -2 -2 -2 -2 -1 0 3 3 2 2 1 3 2 1 1 1 1 1 1 2 3 3 2 2 1 0 -1 -2 -2 -1 -1 -1 -2 -3
-2 -3 -4 -3 -3 -3 -2 -3 -3 -3 -3 -2 -2 -2 0 3 2 1 0 1 0 1 1 -0 -0 -1 -1 -2 -2 -2 -2 -2 -2 -2 -3 -3 -3 -4 -3 -4 -4 -4 -4 -4
-4 -3 -2 -2 -3 -3 -3 -3 -4 -4 -3 -3 -2 0 0 1 0 0 0 0 -1 -2 -2 -2 -2 -2 -2 -3 -3 -3 -3 -3 -3 -4 -4 -4 -4 -4 -4 -5 -5 -5 -5 -4
Height
873 868 863 858 851 841 833 832 830 819 818 827 825 820 802 799 796 797 799 799 796 792 787 790 792 787 777 776 781 788 786 791 793 774 762 759 764 769 769 786 773 777 777 770
876 871 866 860 854 848 844 840 833 821 820 831 831 818 807 801 798 798 797 798 796 790 789 793 789 778 776 776 781 784 783 792 801 770 769 762 763 763 762 764 775 776 780 765
878 873 869 864 856 849 845 842 842 829 825 827 825 830 816 811 801 798 795 795 791 791 793 789 785 776 777 779 779 780 782 787 782 776 756 756 760 756 759 764 794 767 759 743
880 876 872 867 859 850 847 845 845 849 845 833 839 834 824 814 809 800 797 796 795 795 796 788 785 780 777 779 779 782 786 791 784 769 763 761 757 754 755 766 757 757 738 738
881 878 874 870 864 855 852 855 855 855 851 844 841 833 825 821 815 819 815 808 811 807 798 789 784 780 777 775 783 786 786 786 770 767 756 758 757 747 745 749 745 750 741 734
883 880 876 873 870 865 863 863 862 859 854 847 849 842 835 832 831 817 809 817 816 804 794 791 788 784 776 769 776 782 783 787 783 770 751 754 754 730 731 736 731 727 737 720
882 880 877 874 873 872 871 869 866 862 856 852 849 845 844 838 835 827 820 818 819 802 795 786 778 774 773 771 767 765 772 777 781 784 763 768 722 717 718 722 717 718 714 712
880 879 877 875 873 871 870 869 868 863 854 847 844 841 837 837 832 828 821 816 808 805 800 791 782 772 767 762 762 762 761 763 769 774 775 741 718 719 720 719 706 705 709 710
878 876 874 872 871 870 867 866 866 865 855 843 841 842 839 837 830 823 814 808 805 804 791 784 779 770 762 755 761 766 761 760 755 775 763 743 712 706 705 706 711 696 702 710
875 872 871 869 867 866 865 863 863 862 854 838 838 839 836 832 828 823 815 808 808 804 794 778 770 761 749 746 751 773 769 769 758 752 755 737 710 708 706 712 699 691 695 702
870 868 866 865 863 861 861 859 858 859 850 829 834 830 831 827 823 818 812 813 806 798 788 767 751 750 742 738 725 750 742 758 758 758 760 745 703 711 705 686 686 687 693 699
865 862 860 858 856 855 855 851 851 850 845 826 825 822 820 820 814 816 813 810 811 800 802 787 785 780 777 752 736 721 727 715 733 724 711 696 695 687 687 687 685 688 691 696
858 855 853 851 850 848 848 844 842 840 832 820 811 802 798 798 801 803 806 797 796 793 792 791 782 776 768 762 742 733 726 712 708 709 692 693 693 689 688 687 687 687 688 694
850 847 845 844 842 840 839 836 834 833 825 811 790 790 783 783 790 788 788 784 787 786 787 785 779 775 766 760 749 750 751 750 727 703 696 692 689 690 688 688 689 691 692 694
842 840 837 835 832 830 828 824 820 820 821 800 784 770 770 778 778 776 775 773 775 778 776 769 761 756 762 753 752 738 731 729 728 719 705 691 676 676 682 687 687 690 692 699
834 831 828 825 823 821 819 811 800 796 798 791 773 754 756 759 759 755 755 757 760 762 757 749 748 743 747 743 734 718 717 716 712 707 705 704 690 680 679 682 685 688 692 697
825 822 819 816 814 813 811 802 790 793 795 786 768 753 737 734 735 738 740 744 746 749 744 736 733 735 737 732 723 706 705 702 704 703 711 706 697 684 682 682 686 689 695 700
818 813 809 805 802 796 788 779 780 784 785 776 760 746 739 731 730 730 725 730 734 731 726 722 717 717 723 719 703 690 690 693 693 693 696 699 697 691 686 684 689 693 698 703
809 804 799 793 786 781 773 771 771 772 775 758 745 736 729 710 715 716 717 717 718 712 707 697 710 705 695 674 669 668 671 678 679 678 680 681 682 689 690 687 691 697 705 707
801 797 793 788 775 772 769 761 757 750 747 747 730 730 717 718 717 714 711 706 702 691 685 689 687 674 654 655 660 660 661 666 669 672 672 677 681 687 689 685 688 693 707 711
796 792 788 775 771 766 760 756 752 742 733 734 725 725 724 716 715 704 706 689 685 676 679 676 672 649 643 651 650 645 650 655 655 657 655 657 661 672 678 683 690 694 704 711
793 790 781 774 768 761 754 746 737 728 725 726 724 724 718 707 695 687 680 677 679 675 673 669 659 635 634 637 633 630 632 638 642 645 647 650 655 664 673 679 689 697 704 711
786 784 780 773 768 762 751 739 742 736 732 727 726 723 715 701 689 678 673 668 665 672 662 657 643 635 632 625 618 616 614 615 621 630 637 644 653 663 666 682 695 698 706 717
790 788 778 772 774 748 744 744 743 740 735 732 728 723 713 701 683 671 665 673 673 669 665 662 658 645 635 629 620 611 601 598 608 622 635 648 658 668 678 684 696 704 713 725
786 780 776 774 750 750 746 745 742 739 736 733 726 719 709 696 676 670 673 673 678 658 655 655 651 645 638 630 621 612 605 606 617 630 643 653 663 672 687 695 704 710 718 727
775 769 764 754 752 749 745 743 740 737 733 729 724 717 698 674 672 675 682 675 677 671 668 666 659 656 650 644 637 633 633 627 636 650 657 664 673 683 693 703 711 717 725 730
767 759 754 753 752 749 745 743 738 735 732 724 719 699 693 689 688 687 691 689 690 688 683 678 672 668 663 659 656 656 656 656 657 663 672 682 689 695 702 713 722 725 729 732
Wind_Speed
26 28 29 31 34 37 24 9 3 4 1 2 2 2 4 4 1 1 4 3 5 5 3 3 5 6 6 7 6 5 5 3 5 9 3 4 4 6 6 4 5 2 2 6
25 27 29 31 32 30 16 6 3 3 2 1 3 7 7 4 4 5 3 3 6 1 4 3 6 4 0 6 7 5 3 3 4 4 4 1 4 5 5 2 2 6 3 6
24 25 29 31 33 31 13 3 4 4 3 1 3 7 7 6 8 4 4 4 3 1 3 4 5 2 2 5 4 4 2 3 7 6 4 3 4 5 6 6 3 4 7 6
23 25 26 30 33 28 6 2 2 3 4 4 10 6 5 10 7 2 3 4 5 6 4 5 6 5 2 3 4 4 4 5 4 10 12 7 10 10 10 9 8 6 5 6
22 23 25 25 29 30 9 4 4 5 6 7 6 6 4 11 8 8 9 6 16 16 8 11 17 6 4 7 3 6 3 4 3 5 10 10 9 12 12 10 10 10 13 19
21 22 23 23 24 25 7 8 7 1 5 4 4 5 7 13 16 10 6 14 15 12 13 5 11 9 10 7 8 9 6 4 1 6 3 5 8 11 11 6 6 8 9 11
19 20 20 21 18 17 15 12 7 2 4 2 4 14 18 20 19 20 19 20 16 7 22 19 12 10 10 8 8 8 7 5 3 4 3 4 7 1 4 7 6 10 4 6
18 18 18 18 18 16 15 16 6 3 6 8 12 11 13 16 15 16 17 18 12 14 13 10 8 4 4 6 11 10 7 6 3 3 4 7 6 6 8 8 7 13 11 9
19 19 19 18 18 18 16 17 12 6 6 5 6 11 9 13 15 15 14 6 12 8 4 7 10 9 4 5 2 5 4 3 6 4 4 7 6 1 4 4 5 7 9 7
20 20 20 20 20 20 19 22 19 7 8 12 13 10 7 4 4 6 7 7 6 4 4 11 14 14 3 13 10 4 2 2 13 12 6 7 9 6 3 5 7 7 10 10
21 22 22 22 21 21 21 23 23 15 8 17 22 25 19 13 9 11 7 10 5 4 6 6 10 8 8 13 21 8 12 10 6 6 5 11 6 2 8 5 2 6 6 8
23 23 24 24 25 24 23 24 25 23 15 16 34 42 42 36 27 11 4 8 14 3 3 4 4 13 7 11 9 7 12 11 6 12 8 6 11 4 6 2 5 6 7 6
26 27 27 28 28 27 25 29 30 23 11 15 19 13 33 36 35 36 15 14 15 13 11 7 6 8 4 7 5 7 13 4 9 3 7 9 8 4 4 5 3 4 5 9
28 29 30 30 30 29 28 30 31 24 14 8 18 36 38 42 32 35 34 32 27 17 9 11 11 11 4 9 11 10 11 15 13 10 5 5 5 8 5 4 5 5 6 6
32 33 34 33 32 31 31 34 34 31 17 11 16 39 42 24 24 31 33 30 18 11 9 8 11 8 7 8 9 15 11 17 10 10 21 10 7 9 8 8 8 9 10 8
34 34 33 33 30 28 28 7 18 26 37 6 11 8 14 24 30 34 32 24 10 11 4 6 9 13 7 6 12 22 19 18 18 17 17 9 10 4 4 9 10 8 9 10
30 31 32 32 31 30 18 9 24 15 9 5 7 9 5 30 27 13 12 21 10 9 11 13 15 8 8 10 16 23 21 15 13 13 12 20 15 5 4 7 9 13 11 14
32 34 34 35 34 37 30 41 42 36 26 7 5 6 6 9 9 5 6 5 7 8 11 11 17 11 11 12 24 30 28 26 24 20 17 16 17 3 5 11 13 14 14 14
33 32 33 34 21 9 7 12 20 16 15 4 4 8 14 4 12 11 6 7 7 4 10 18 7 10 11 23 31 30 26 23 25 22 18 11 12 7 9 14 14 15 10 13
34 28 4 4 6 8 29 20 4 2 6 5 11 3 16 3 2 2 3 5 6 5 7 5 8 16 30 26 23 21 20 22 22 22 20 9 9 14 15 15 13 15 11 11
7 3 4 24 36 24 2 4 3 3 5 3 3 1 10 8 12 12 6 3 4 4 4 8 4 13 19 22 27 26 25 19 16 23 21 20 16 18 16 15 15 15 18 15
10 19 31 13 3 3 5 4 3 2 3 3 3 8 8 5 5 4 4 3 4 5 3 3 4 8 12 9 19 25 27 25 25 23 18 19 16 18 15 16 16 18 23 24
11 4 3 3 3 3 4 4 3 5 4 2 7 12 3 3 3 4 3 4 4 1 3 4 5 3 5 10 11 15 17 24 26 25 22 15 17 25 25 18 22 28 26 23
1 2 6 5 4 4 2 3 5 4 3 10 11 5 3 3 4 3 3 3 2 2 3 5 2 7 12 10 10 14 16 15 20 16 17 20 20 18 25 31 32 29 23 19
3 3 6 5 3 2 3 3 4 2 6 8 7 5 4 4 4 2 1 2 4 3 3 4 8 11 9 9 6 7 5 15 17 20 20 22 22 22 23 29 26 27 24 22
4 6 3 3 3 4 5 5 4 4 5 5 4 4 5 5 3 1 2 2 2 5 5 8 8 10 11 12 14 14 12 17 20 19 19 23 22 20 25 28 25 23 23 20
3 3 1 2 4 5 4 6 6 4 5 3 4 4 4 5 5 5 4 5 6 5 6 7 10 10 11 14 16 16 17 18 20 21 27 26 29 30 28 16 18 22 22 22
Wind_Direction
9 8 4 0 359 356 7 347 341 4 105 27 245 225 236 339 229 140 259 239 243 229 222 252 240 237 214 169 151 186 212 223 258 228 240 167 173 220 179 141 270 252 172 272
6 5 2 360 358 1 347 334 282 328 309 242 316 315 308 306 252 209 194 262 230 266 249 217 221 262 72 150 159 196 185 244 311 335 342 326 197 205 208 171 81 223 171 265
4 4 2 360 357 355 351 349 339 330 28 324 357 353 304 336 329 279 259 257 268 261 274 241 269 253 216 197 197 138 71 245 207 228 242 135 220 221 193 164 156 232 224 264
0 1 360 359 359 5 22 10 351 7 337 338 327 324 301 309 346 334 317 315 230 220 264 277 226 247 219 205 196 163 172 246 230 260 270 270 257 244 218 199 213 206 254 229
357 356 358 2 3 5 49 25 354 353 303 288 334 331 322 307 341 347 320 346 345 328 265 257 286 300 204 218 159 174 202 258 255 279 251 251 260 258 245 225 233 248 255 267
351 351 354 358 4 13 12 2 343 309 287 331 327 264 323 321 336 291 315 334 321 309 307 290 287 265 260 215 171 194 179 206 181 265 298 311 288 244 212 208 202 193 218 236
343 344 348 350 355 3 358 350 325 302 279 286 297 306 300 296 294 288 297 310 294 298 314 302 292 279 253 238 222 178 177 185 170 256 330 248 245 284 166 217 231 213 183 193
334 335 337 341 342 343 341 334 342 304 285 301 281 270 295 292 287 292 299 293 288 315 302 303 293 294 295 236 227 217 192 162 235 218 207 289 286 220 187 175 271 207 203 186
327 326 328 329 331 332 329 323 320 299 297 250 302 306 286 293 289 285 258 279 304 341 276 230 249 243 225 236 249 348 159 126 200 163 217 230 247 182 146 146 280 188 170 177
320 320 321 322 321 321 322 311 309 284 281 276 264 271 278 276 301 284 292 304 330 294 271 250 242 248 246 241 239 178 159 198 216 224 247 276 256 177 138 164 236 170 173 169
313 314 312 310 309 308 309 303 300 277 275 277 273 269 271 271 244 263 299 317 279 260 244 249 229 233 234 228 233 190 202 178 196 191 220 253 191 49 191 207 17 150 150 160
306 306 305 305 302 301 301 291 295 289 257 276 283 278 275 260 258 264 237 274 268 257 313 299 327 305 291 272 271 225 228 212 190 191 211 225 196 227 228 217 160 173 153 162
306 305 304 302 301 299 293 291 290 284 275 279 258 254 262 259 250 248 254 252 242 248 244 272 275 265 323 290 325 320 358 319 241 162 222 222 228 273 237 192 231 181 144 147
303 301 297 295 293 290 289 287 283 274 272 269 273 273 260 262 258 249 235 238 248 253 258 263 263 261 236 266 281 283 270 310 310 277 338 312 251 219 204 183 144 121 116 140
299 297 295 293 292 291 290 285 278 264 236 266 274 274 268 266 260 256 247 236 236 238 237 231 243 244 239 246 261 261 255 252 275 287 310 280 231 213 173 173 172 154 139 128
298 297 296 295 294 295 297 284 275 263 237 262 268 276 251 257 245 237 236 234 235 223 227 229 237 229 221 260 267 267 263 248 246 259 291 265 290 240 165 157 157 148 139 145
304 302 300 297 294 289 264 249 261 279 262 277 284 284 234 232 241 242 241 234 226 217 233 238 245 244 203 242 254 258 270 271 284 291 301 304 298 261 178 126 127 120 106 118
305 302 298 296 292 284 274 266 267 267 265 250 253 262 260 200 243 233 185 203 201 219 235 240 234 246 236 248 252 254 252 253 264 260 256 248 277 200 146 130 132 127 126 124
308 305 300 295 275 243 240 305 290 259 216 253 243 242 272 213 230 239 232 212 228 215 229 235 221 226 224 226 235 243 245 242 251 257 251 231 224 198 163 146 136 129 134 129
311 306 258 273 233 288 310 295 230 260 193 229 250 303 260 321 359 259 225 198 206 233 225 151 218 234 238 238 245 249 245 233 236 246 249 193 168 171 178 163 144 131 132 131
293 270 232 284 298 298 227 250 219 215 207 209 246 223 275 270 251 253 218 225 204 241 223 190 220 241 245 239 243 245 245 237 232 229 230 220 199 171 158 145 140 140 142 141
286 284 289 291 279 247 243 232 234 288 36 287 1 329 295 264 230 232 199 209 183 247 153 218 258 258 253 232 232 237 237 232 231 230 233 212 175 164 154 140 140 137 130 129
307 323 270 263 274 263 256 322 330 330 331 332 333 327 272 292 250 234 236 235 233 37 223 244 245 291 281 252 247 248 248 231 216 221 226 175 155 150 140 131 133 127 122 132
120 249 265 220 268 238 268 337 304 290 299 327 315 289 266 296 261 244 231 249 55 276 259 240 289 304 304 306 287 259 252 206 194 173 139 131 127 120 119 122 128 125 120 127
215 224 239 237 259 277 285 299 280 294 313 308 298 265 231 253 271 245 59 343 261 246 300 322 325 325 334 333 347 10 87 116 116 121 123 118 116 114 115 116 117 118 115 116
223 232 272 277 311 314 321 308 296 297 286 287 249 256 268 237 290 122 241 227 308 339 332 343 360 16 31 39 45 52 65 93 103 106 106 104 104 106 107 104 104 105 114 114
236 256 301 321 275 283 298 306 290 278 288 238 249 258 2 327 357 25 7 348 350 10 17 20 26 39 53 65 67 68 71 75 83 89 92 96 101 101 97 92 93 100 104 107